| time (UTC) | temp C | wind direction | speed KPH | gust KPH | rain 1hr cm | rain 24hr cm | rain mn cm | humidity % | barometer mb |
| 20260505214207 | 23 | 130 | 11.3 | 24.1 | 0.00 | 0.00 | 0.00 | 59 | 1016.4 |
| 20260505213708 | 23 | 168 | 9.7 | 24.1 | 0.00 | 0.00 | 0.00 | 59 | 1016.5 |
| 20260505213206 | 23 | 145 | 9.7 | 19.3 | 0.00 | 0.00 | 0.00 | 60 | 1016.4 |
| 20260505212709 | 23 | 217 | 11.3 | 16.1 | 0.00 | 0.00 | 0.00 | 60 | 1016.5 |
| 20260505212207 | 23 | 142 | 12.9 | 20.9 | 0.00 | 0.00 | 0.00 | 59 | 1016.4 |
| 20260505211707 | 23 | 171 | 11.3 | 22.5 | 0.00 | 0.00 | 0.00 | 59 | 1016.5 |
| 20260505211206 | 23 | 156 | 11.3 | 25.7 | 0.00 | 0.00 | 0.00 | 57 | 1016.6 |
| 20260505210707 | 24 | 153 | 12.9 | 20.9 | 0.00 | 0.00 | 0.00 | 59 | 1016.6 |
| 20260505210207 | 24 | 162 | 8.0 | 19.3 | 0.00 | 0.00 | 0.00 | 58 | 1016.5 |
| 20260505205708 | 24 | 225 | 11.3 | 25.7 | 0.00 | 0.00 | 0.00 | 58 | 1016.5 |
| 20260505203706 | 24 | 187 | 14.5 | 24.1 | 0.00 | 0.00 | 0.00 | 57 | 1016.6 |
| 20260505203207 | 24 | 147 | 9.7 | 24.1 | 0.00 | 0.00 | 0.00 | 58 | 1016.7 |
| 20260505202708 | 24 | 153 | 14.5 | 25.7 | 0.00 | 0.00 | 0.00 | 59 | 1016.6 |
| 20260505202208 | 23 | 165 | 14.5 | 25.7 | 0.00 | 0.00 | 0.00 | 56 | 1016.5 |
| 20260505201707 | 24 | 181 | 17.7 | 25.7 | 0.00 | 0.00 | 0.00 | 56 | 1016.7 |
| 20260505201206 | 24 | 163 | 16.1 | 27.4 | 0.00 | 0.00 | 0.00 | 57 | 1016.6 |
| 20260505200707 | 24 | 184 | 11.3 | 27.4 | 0.00 | 0.00 | 0.00 | 57 | 1016.7 |
| 20260505200207 | 24 | 140 | 16.1 | 24.1 | 0.00 | 0.00 | 0.00 | 55 | 1016.8 |
| 20260505195706 | 24 | 198 | 12.9 | 24.1 | 0.00 | 0.00 | 0.00 | 54 | 1016.8 |
| 20260505195207 | 24 | 216 | 16.1 | 24.1 | 0.00 | 0.00 | 0.00 | 57 | 1017.0 |
| 20260505194706 | 24 | 132 | 19.3 | 32.2 | 0.00 | 0.00 | 0.00 | 56 | 1016.9 |
| 20260505194207 | 25 | 136 | 12.9 | 27.4 | 0.00 | 0.00 | 0.00 | 56 | 1016.8 |
| 20260505193706 | 25 | 142 | 11.3 | 19.3 | 0.00 | 0.00 | 0.00 | 55 | 1016.8 |
| 20260505193207 | 25 | 172 | 11.3 | 20.9 | 0.00 | 0.00 | 0.00 | 56 | 1017.0 |
| 20260505192708 | 24 | 148 | 11.3 | 24.1 | 0.00 | 0.00 | 0.00 | 56 | 1017.1 |
| 20260505192206 | 24 | 120 | 12.9 | 24.1 | 0.00 | 0.00 | 0.00 | 56 | 1017.2 |
| 20260505191706 | 24 | 231 | 9.7 | 24.1 | 0.00 | 0.00 | 0.00 | 57 | 1017.3 |
| 20260505191208 | 25 | 160 | 6.4 | 20.9 | 0.00 | 0.00 | 0.00 | 57 | 1017.4 |
| 20260505190709 | 25 | 138 | 9.7 | 16.1 | 0.00 | 0.00 | 0.00 | 56 | 1017.5 |
| 20260505190206 | 24 | 176 | 14.5 | 25.7 | 0.00 | 0.00 | 0.00 | 56 | 1017.5 |
| 20260505185707 | 25 | 159 | 14.5 | 24.1 | 0.00 | 0.00 | 0.00 | 54 | 1017.5 |
| 20260505185206 | 25 | 151 | 11.3 | 24.1 | 0.00 | 0.00 | 0.00 | 55 | 1017.6 |
| 20260505184706 | 25 | 197 | 12.9 | 25.7 | 0.00 | 0.00 | 0.00 | 55 | 1017.5 |
| 20260505184207 | 25 | 173 | 9.7 | 16.1 | 0.00 | 0.00 | 0.00 | 55 | 1017.4 |
| 20260505183206 | 25 | 216 | 9.7 | 16.1 | 0.00 | 0.00 | 0.00 | 55 | 1017.4 |
| 20260505182708 | 25 | 206 | 14.5 | 24.1 | 0.00 | 0.00 | 0.00 | 55 | 1017.4 |
| 20260505182206 | 25 | 171 | 16.1 | 22.5 | 0.00 | 0.00 | 0.00 | 54 | 1017.4 |
| 20260505181207 | 24 | 150 | 9.7 | 25.7 | 0.00 | 0.00 | 0.00 | 56 | 1017.5 |
| 20260505180707 | 25 | 155 | 11.3 | 24.1 | 0.00 | 0.00 | 0.00 | 54 | 1017.6 |
| 20260505180206 | 24 | 148 | 11.3 | 22.5 | 0.00 | 0.00 | 0.00 | 56 | 1017.5 |
| 20260505175706 | 24 | 150 | 14.5 | 22.5 | 0.00 | 0.00 | 0.00 | 54 | 1017.6 |
| 20260505175206 | 24 | 140 | 14.5 | 20.9 | 0.00 | 0.00 | 0.00 | 55 | 1017.6 |
| 20260505174718 | 25 | 137 | 12.9 | 20.9 | 0.00 | 0.00 | 0.00 | 54 | 1017.8 |
| 20260505174206 | 25 | 238 | 9.7 | 14.5 | 0.00 | 0.00 | 0.00 | 56 | 1017.9 |
| 20260505173710 | 24 | 158 | 12.9 | 20.9 | 0.00 | 0.00 | 0.00 | 54 | 1017.9 |
| 20260505172206 | 24 | 165 | 12.9 | 25.7 | 0.00 | 0.00 | 0.00 | 57 | 1018.0 |
| 20260505171707 | 24 | 161 | 16.1 | 24.1 | 0.00 | 0.00 | 0.00 | 56 | 1018.1 |
| 20260505171208 | 24 | 150 | 9.7 | 27.4 | 0.00 | 0.00 | 0.00 | 57 | 1018.1 |
| 20260505170707 | 24 | 154 | 14.5 | 22.5 | 0.00 | 0.00 | 0.00 | 55 | 1018.1 |
| 20260505170206 | 24 | 146 | 9.7 | 27.4 | 0.00 | 0.00 | 0.00 | 55 | 1018.1 |
| 20260505165706 | 24 | 148 | 11.3 | 27.4 | 0.00 | 0.00 | 0.00 | 57 | 1018.2 |
| 20260505165207 | 24 | 186 | 12.9 | 22.5 | 0.00 | 0.00 | 0.00 | 55 | 1018.2 |
| 20260505164707 | 24 | 152 | 9.7 | 22.5 | 0.00 | 0.00 | 0.00 | 56 | 1018.3 |
| 20260505164207 | 24 | 141 | 11.3 | 24.1 | 0.00 | 0.00 | 0.00 | 56 | 1018.3 |
| 20260505163207 | 25 | 142 | 9.7 | 22.5 | 0.00 | 0.00 | 0.00 | 54 | 1018.4 |
| 20260505162708 | 25 | 157 | 8.0 | 20.9 | 0.00 | 0.00 | 0.00 | 56 | 1018.3 |
| 20260505162208 | 24 | 194 | 9.7 | 12.9 | 0.00 | 0.00 | 0.00 | 59 | 1018.4 |
| 20260505161206 | 23 | 239 | 11.3 | 20.9 | 0.00 | 0.00 | 0.00 | 60 | 1018.6 |
| 20260505160707 | 23 | 173 | 9.7 | 22.5 | 0.00 | 0.00 | 0.00 | 59 | 1018.6 |
| 20260505160206 | 23 | 159 | 11.3 | 22.5 | 0.00 | 0.00 | 0.00 | 58 | 1018.7 |
| 20260505153208 | 23 | 176 | 9.7 | 16.1 | 0.00 | 0.00 | 0.00 | 58 | 1018.6 |
| 20260505152709 | 23 | 194 | 4.8 | 16.1 | 0.00 | 0.00 | 0.00 | 59 | 1018.6 |
| 20260505151706 | 23 | 219 | 8.0 | 14.5 | 0.00 | 0.00 | 0.00 | 59 | 1018.7 |
| 20260505150708 | 23 | 218 | 9.7 | 16.1 | 0.00 | 0.00 | 0.00 | 58 | 1018.5 |
| 20260505150206 | 23 | 147 | 11.3 | 14.5 | 0.00 | 0.00 | 0.00 | 57 | 1018.6 |
| 20260505140207 | 22 | 237 | 8.0 | 14.5 | 0.00 | 0.00 | 0.00 | 65 | 1018.4 |
| 20260505130207 | 21 | 255 | 4.8 | 9.7 | 0.00 | 0.00 | 0.00 | 74 | 1018.4 |
| 20260505124706 | 20 | 223 | 3.2 | 8.0 | 0.00 | 0.00 | 0.00 | 79 | 1018.3 |
| 20260505123707 | 18 | 252 | 3.2 | 4.8 | 0.00 | 0.00 | 0.00 | 83 | 1018.3 |
| 20260505123206 | 18 | 217 | 0.0 | 0.0 | 0.00 | 0.00 | 0.00 | 87 | 1018.3 |
| 20260505121707 | 16 | 262 | 0.0 | 0.0 | 0.00 | 0.00 | 0.00 | 95 | 1018.3 |
| 20260505120207 | 13 | 257 | 0.0 | 0.0 | 0.00 | 0.00 | 0.00 | 95 | 1018.2 |
| 20260505115207 | 11 | 257 | 0.0 | 0.0 | 0.00 | 0.00 | 0.00 | 95 | 1018.1 |
| 20260505114207 | 10 | 257 | 0.0 | 0.0 | 0.00 | 0.00 | 0.00 | 94 | 1018.1 |
| 20260505113707 | 10 | 257 | 0.0 | 0.0 | 0.00 | 0.00 | 0.00 | 94 | 1018.0 |
| 20260505113206 | 9 | 257 | 0.0 | 0.0 | 0.00 | 0.00 | 0.00 | 93 | 1018.0 |
| 20260505112709 | 8 | 257 | 0.0 | 0.0 | 0.00 | 0.00 | 0.00 | 93 | 1017.9 |
| 20260505112207 | 8 | 257 | 0.0 | 0.0 | 0.00 | 0.00 | 0.00 | 93 | 1017.9 |
| 20260505111206 | 8 | 257 | 0.0 | 0.0 | 0.00 | 0.00 | 0.00 | 93 | 1017.7 |
| 20260505110706 | 8 | 256 | 0.0 | 0.0 | 0.00 | 0.00 | 0.00 | 93 | 1017.6 |
| 20260505102207 | 8 | 256 | 0.0 | 0.0 | 0.00 | 0.00 | 0.00 | 92 | 1017.1 |
| 20260505101706 | 8 | 256 | 0.0 | 0.0 | 0.00 | 0.00 | 0.00 | 92 | 1017.1 |
| 20260505101206 | 8 | 256 | 0.0 | 0.0 | 0.00 | 0.00 | 0.00 | 92 | 1017.0 |
| 20260505100706 | 7 | 256 | 0.0 | 0.0 | 0.00 | 0.00 | 0.00 | 91 | 1017.0 |
| 20260505095706 | 8 | 256 | 0.0 | 0.0 | 0.00 | 0.00 | 0.00 | 91 | 1016.9 |
| 20260505094706 | 8 | 256 | 0.0 | 0.0 | 0.00 | 0.00 | 0.00 | 92 | 1016.8 |
| 20260505094206 | 8 | 256 | 0.0 | 0.0 | 0.00 | 0.00 | 0.00 | 92 | 1016.8 |
| 20260505093706 | 8 | 256 | 0.0 | 0.0 | 0.00 | 0.00 | 0.00 | 92 | 1016.8 |
| 20260505093206 | 8 | 256 | 0.0 | 0.0 | 0.00 | 0.00 | 0.00 | 91 | 1016.8 |
| 20260505092708 | 8 | 256 | 0.0 | 0.0 | 0.00 | 0.00 | 0.00 | 91 | 1016.7 |
| 20260505092207 | 8 | 256 | 0.0 | 0.0 | 0.00 | 0.00 | 0.00 | 91 | 1016.6 |
| 20260505091707 | 8 | 256 | 0.0 | 0.0 | 0.00 | 0.00 | 0.00 | 91 | 1016.6 |
| 20260505091206 | 8 | 256 | 0.0 | 0.0 | 0.00 | 0.00 | 0.00 | 91 | 1016.6 |
| 20260505090206 | 8 | 256 | 0.0 | 0.0 | 0.00 | 0.00 | 0.00 | 91 | 1016.7 |
| 20260505085707 | 8 | 256 | 0.0 | 0.0 | 0.00 | 0.00 | 0.00 | 91 | 1016.6 |
| 20260505085206 | 8 | 256 | 0.0 | 0.0 | 0.00 | 0.00 | 0.00 | 91 | 1016.5 |
| 20260505084206 | 8 | 256 | 0.0 | 0.0 | 0.00 | 0.00 | 0.00 | 91 | 1016.4 |
| 20260505083707 | 8 | 256 | 0.0 | 0.0 | 0.00 | 0.00 | 0.00 | 90 | 1016.4 |
| 20260505083207 | 8 | 256 | 0.0 | 0.0 | 0.00 | 0.00 | 0.00 | 90 | 1016.4 |
| 20260505082708 | 8 | 256 | 0.0 | 0.0 | 0.00 | 0.00 | 0.00 | 91 | 1016.4 |
| 20260505082207 | 8 | 256 | 0.0 | 0.0 | 0.00 | 0.00 | 0.00 | 91 | 1016.3 |
| 20260505081707 | 8 | 256 | 0.0 | 0.0 | 0.00 | 0.00 | 0.00 | 91 | 1016.4 |
| 20260505081208 | 8 | 256 | 0.0 | 0.0 | 0.00 | 0.00 | 0.00 | 91 | 1016.3 |
| 20260505080707 | 9 | 256 | 0.0 | 0.0 | 0.00 | 0.00 | 0.00 | 91 | 1016.3 |
| 20260505080206 | 9 | 256 | 0.0 | 0.0 | 0.00 | 0.00 | 0.00 | 91 | 1016.3 |
| 20260505075706 | 9 | 256 | 0.0 | 0.0 | 0.00 | 0.00 | 0.00 | 91 | 1016.4 |
| 20260505075206 | 9 | 256 | 0.0 | 0.0 | 0.00 | 0.00 | 0.00 | 90 | 1016.3 |
| 20260505074706 | 9 | 256 | 0.0 | 0.0 | 0.00 | 0.00 | 0.00 | 90 | 1016.4 |
| 20260505074206 | 9 | 256 | 0.0 | 0.0 | 0.00 | 0.00 | 0.00 | 90 | 1016.4 |
| 20260505073708 | 9 | 256 | 0.0 | 0.0 | 0.00 | 0.00 | 0.00 | 90 | 1016.4 |
| 20260505073206 | 9 | 256 | 0.0 | 0.0 | 0.00 | 0.00 | 0.00 | 90 | 1016.4 |
| 20260505072708 | 9 | 256 | 0.0 | 0.0 | 0.00 | 0.00 | 0.00 | 90 | 1016.3 |
| 20260505072207 | 9 | 256 | 0.0 | 0.0 | 0.00 | 0.00 | 0.00 | 91 | 1016.3 |
| 20260505071706 | 9 | 256 | 0.0 | 0.0 | 0.00 | 0.00 | 0.00 | 90 | 1016.3 |
| 20260505071206 | 9 | 256 | 0.0 | 0.0 | 0.00 | 0.00 | 0.00 | 90 | 1016.3 |
| 20260505070706 | 10 | 256 | 0.0 | 0.0 | 0.00 | 0.00 | 0.00 | 90 | 1016.3 |
| 20260505070206 | 10 | 256 | 0.0 | 0.0 | 0.00 | 0.00 | 0.00 | 90 | 1016.3 |
| 20260505065706 | 10 | 256 | 0.0 | 0.0 | 0.00 | 0.00 | 0.00 | 91 | 1016.4 |
| 20260505065207 | 10 | 256 | 0.0 | 0.0 | 0.00 | 0.00 | 0.00 | 91 | 1016.5 |
| 20260505064706 | 9 | 256 | 0.0 | 0.0 | 0.00 | 0.00 | 0.00 | 90 | 1016.4 |
| 20260505064206 | 9 | 256 | 0.0 | 0.0 | 0.00 | 0.00 | 0.00 | 90 | 1016.4 |
| 20260505063706 | 9 | 256 | 0.0 | 0.0 | 0.00 | 0.00 | 0.00 | 89 | 1016.4 |
| 20260505063206 | 10 | 256 | 0.0 | 0.0 | 0.00 | 0.00 | 0.00 | 89 | 1016.4 |
| 20260505062708 | 10 | 256 | 0.0 | 0.0 | 0.00 | 0.00 | 0.00 | 89 | 1016.5 |
| 20260505062206 | 10 | 256 | 0.0 | 0.0 | 0.00 | 0.00 | 0.00 | 89 | 1016.6 |
| 20260505061706 | 10 | 256 | 0.0 | 0.0 | 0.00 | 0.00 | 0.00 | 89 | 1016.6 |
| 20260505061206 | 10 | 256 | 0.0 | 0.0 | 0.00 | 0.00 | 0.00 | 89 | 1016.7 |
| 20260505060206 | 10 | 256 | 0.0 | 0.0 | 0.00 | 0.00 | 0.00 | 88 | 1016.7 |
| 20260505055706 | 10 | 256 | 0.0 | 0.0 | 0.00 | 0.00 | 0.00 | 88 | 1016.8 |
| 20260505055207 | 10 | 256 | 0.0 | 0.0 | 0.00 | 0.00 | 0.00 | 88 | 1016.8 |
| 20260505054706 | 10 | 256 | 0.0 | 0.0 | 0.00 | 0.00 | 0.00 | 88 | 1016.8 |
| 20260505054206 | 10 | 256 | 0.0 | 0.0 | 0.00 | 0.00 | 0.00 | 88 | 1016.9 |
| 20260505053709 | 11 | 256 | 0.0 | 0.0 | 0.00 | 0.00 | 0.00 | 88 | 1016.9 |
| 20260505053207 | 11 | 256 | 0.0 | 0.0 | 0.00 | 0.03 | 0.00 | 87 | 1017.0 |
| 20260505052708 | 11 | 256 | 0.0 | 0.0 | 0.00 | 0.03 | 0.00 | 88 | 1017.0 |
| 20260505051706 | 11 | 256 | 0.0 | 0.0 | 0.00 | 0.03 | 0.00 | 87 | 1017.2 |
| 20260505050706 | 11 | 256 | 0.0 | 0.0 | 0.00 | 0.03 | 0.00 | 88 | 1017.2 |
| 20260505050207 | 11 | 256 | 0.0 | 0.0 | 0.00 | 0.03 | 0.00 | 88 | 1017.3 |
| 20260505041706 | 12 | 256 | 0.0 | 0.0 | 0.00 | 0.03 | 0.00 | 83 | 1017.3 |
| 20260505041206 | 12 | 256 | 0.0 | 0.0 | 0.00 | 0.03 | 0.00 | 84 | 1017.2 |
| 20260505040205 | 12 | 256 | 0.0 | 0.0 | 0.00 | 0.03 | 0.00 | 83 | 1017.1 |
| 20260505035706 | 12 | 256 | 0.0 | 0.0 | 0.00 | 0.03 | 0.03 | 83 | 1017.1 |
| 20260505035207 | 13 | 256 | 0.0 | 0.0 | 0.00 | 0.03 | 0.03 | 81 | 1017.2 |
| 20260505034706 | 13 | 256 | 0.0 | 1.6 | 0.00 | 0.03 | 0.03 | 80 | 1017.3 |
| 20260505033707 | 14 | 256 | 0.0 | 0.0 | 0.00 | 0.03 | 0.03 | 78 | 1017.3 |
| 20260505033206 | 14 | 256 | 0.0 | 0.0 | 0.00 | 0.03 | 0.03 | 77 | 1017.2 |
| 20260505032708 | 15 | 256 | 0.0 | 0.0 | 0.00 | 0.03 | 0.03 | 78 | 1017.2 |
| 20260505032207 | 15 | 256 | 0.0 | 0.0 | 0.00 | 0.03 | 0.03 | 77 | 1017.2 |
| 20260505031707 | 15 | 256 | 0.0 | 0.0 | 0.00 | 0.03 | 0.03 | 77 | 1017.2 |
| 20260505031206 | 16 | 256 | 0.0 | 0.0 | 0.00 | 0.03 | 0.03 | 78 | 1017.2 |
| 20260505025706 | 16 | 256 | 0.0 | 0.0 | 0.00 | 0.03 | 0.03 | 74 | 1017.2 |
| 20260505025206 | 17 | 256 | 0.0 | 0.0 | 0.00 | 0.03 | 0.03 | 73 | 1017.2 |
| 20260505024706 | 17 | 256 | 0.0 | 0.0 | 0.00 | 0.03 | 0.03 | 74 | 1017.2 |
| 20260505024206 | 17 | 256 | 0.0 | 0.0 | 0.00 | 0.03 | 0.03 | 71 | 1017.2 |
| 20260505023706 | 17 | 256 | 0.0 | 0.0 | 0.00 | 0.03 | 0.03 | 70 | 1017.2 |
| 20260505023205 | 17 | 256 | 0.0 | 1.6 | 0.00 | 0.03 | 0.03 | 70 | 1017.3 |
| 20260505022207 | 17 | 256 | 1.6 | 3.2 | 0.00 | 0.03 | 0.03 | 68 | 1017.3 |
| 20260505021706 | 17 | 155 | 0.0 | 3.2 | 0.00 | 0.03 | 0.03 | 69 | 1017.3 |
| 20260505021207 | 18 | 222 | 0.0 | 0.0 | 0.00 | 0.03 | 0.03 | 69 | 1017.3 |
| 20260505020706 | 18 | 222 | 0.0 | 3.2 | 0.00 | 0.03 | 0.03 | 68 | 1017.4 |
| 20260505020205 | 18 | 237 | 0.0 | 3.2 | 0.00 | 0.03 | 0.03 | 68 | 1017.3 |
| 20260505015705 | 18 | 238 | 0.0 | 0.0 | 0.00 | 0.03 | 0.03 | 66 | 1017.2 |
| 20260505015206 | 18 | 127 | 0.0 | 1.6 | 0.00 | 0.03 | 0.03 | 67 | 1017.2 |
| 20260505014706 | 18 | 202 | 0.0 | 9.7 | 0.00 | 0.03 | 0.03 | 66 | 1017.1 |
| 20260505014206 | 18 | 247 | 1.6 | 9.7 | 0.00 | 0.03 | 0.03 | 65 | 1017.1 |
| 20260505013719 | 18 | 252 | 3.2 | 8.0 | 0.00 | 0.03 | 0.03 | 65 | 1017.0 |
| 20260505013207 | 19 | 248 | 3.2 | 8.0 | 0.00 | 0.03 | 0.03 | 65 | 1017.0 |
| 20260505012709 | 19 | 247 | 1.6 | 4.8 | 0.00 | 0.03 | 0.03 | 65 | 1016.9 |
| 20260505012207 | 19 | 245 | 1.6 | 4.8 | 0.00 | 0.03 | 0.03 | 65 | 1016.9 |
| 20260505011707 | 19 | 247 | 0.0 | 3.2 | 0.00 | 0.03 | 0.03 | 65 | 1016.8 |
| 20260505011208 | 19 | 236 | 1.6 | 4.8 | 0.00 | 0.03 | 0.03 | 64 | 1016.7 |
| 20260505010707 | 19 | 242 | 1.6 | 4.8 | 0.00 | 0.03 | 0.03 | 65 | 1016.7 |
| 20260505010207 | 20 | 230 | 1.6 | 4.8 | 0.00 | 0.03 | 0.03 | 64 | 1016.7 |
| 20260505005708 | 20 | 228 | 3.2 | 9.7 | 0.00 | 0.03 | 0.03 | 63 | 1016.7 |
| 20260505005208 | 20 | 207 | 1.6 | 3.2 | 0.00 | 0.03 | 0.03 | 63 | 1016.7 |
| 20260505004708 | 20 | 175 | 1.6 | 3.2 | 0.00 | 0.03 | 0.03 | 62 | 1016.6 |
| 20260505004207 | 20 | 187 | 4.8 | 9.7 | 0.00 | 0.03 | 0.03 | 62 | 1016.6 |
| 20260505003708 | 20 | 167 | 1.6 | 8.0 | 0.00 | 0.03 | 0.03 | 61 | 1016.5 |
| 20260505003208 | 20 | 150 | 1.6 | 9.7 | 0.00 | 0.03 | 0.03 | 61 | 1016.4 |
| 20260505002709 | 20 | 169 | 4.8 | 12.9 | 0.00 | 0.03 | 0.03 | 60 | 1016.4 |
| 20260505002208 | 20 | 222 | 4.8 | 9.7 | 0.00 | 0.03 | 0.03 | 60 | 1016.3 |
| 20260505001708 | 20 | 226 | 4.8 | 11.3 | 0.00 | 0.03 | 0.03 | 60 | 1016.3 |
| 20260505001208 | 20 | 234 | 4.8 | 14.5 | 0.00 | 0.03 | 0.03 | 59 | 1016.4 |
| 20260504235708 | 21 | 236 | 8.0 | 11.3 | 0.00 | 0.03 | 0.03 | 58 | 1016.3 |
| 20260504234707 | 21 | 225 | 9.7 | 16.1 | 0.00 | 0.03 | 0.03 | 58 | 1016.2 |
| 20260504234207 | 21 | 169 | 3.2 | 12.9 | 0.00 | 0.03 | 0.03 | 59 | 1016.2 |
| 20260504233207 | 21 | 209 | 9.7 | 20.9 | 0.00 | 0.03 | 0.03 | 57 | 1016.0 |
| 20260504231708 | 21 | 236 | 8.0 | 14.5 | 0.00 | 0.03 | 0.03 | 58 | 1016.2 |
| 20260504231207 | 21 | 239 | 8.0 | 14.5 | 0.00 | 0.03 | 0.03 | 57 | 1016.2 |
| 20260504230707 | 21 | 190 | 8.0 | 22.5 | 0.00 | 0.03 | 0.03 | 56 | 1016.1 |
| 20260504230207 | 21 | 160 | 8.0 | 22.5 | 0.00 | 0.03 | 0.03 | 58 | 1016.0 |
| 20260504225707 | 21 | 124 | 8.0 | 19.3 | 0.00 | 0.03 | 0.03 | 56 | 1016.1 |
| 20260504224715 | 22 | 219 | 9.7 | 20.9 | 0.00 | 0.03 | 0.03 | 55 | 1016.0 |
| 20260504224208 | 22 | 175 | 12.9 | 27.4 | 0.00 | 0.03 | 0.03 | 55 | 1016.0 |
| 20260504223708 | 22 | 208 | 9.7 | 19.3 | 0.00 | 0.03 | 0.03 | 57 | 1016.1 |
| 20260504223207 | 22 | 224 | 9.7 | 25.7 | 0.00 | 0.03 | 0.03 | 54 | 1016.0 |
| 20260504222710 | 22 | 247 | 11.3 | 24.1 | 0.00 | 0.03 | 0.03 | 53 | 1016.0 |
| 20260504222207 | 22 | 231 | 9.7 | 22.5 | 0.00 | 0.03 | 0.03 | 51 | 1016.0 |
| 20260504221708 | 22 | 190 | 9.7 | 20.9 | 0.00 | 0.03 | 0.03 | 52 | 1016.1 |
| 20260504220707 | 22 | 220 | 9.7 | 19.3 | 0.00 | 0.03 | 0.03 | 50 | 1016.0 |
| 20260504220207 | 22 | 231 | 8.0 | 24.1 | 0.00 | 0.03 | 0.03 | 52 | 1016.0 |
| 20260504215708 | 22 | 146 | 11.3 | 22.5 | 0.00 | 0.03 | 0.03 | 51 | 1016.0 |
| 20260504215209 | 22 | 141 | 16.1 | 33.8 | 0.00 | 0.03 | 0.03 | 50 | 1015.9 |